TimeSAST,TemperatureF,Dew PointF,Humidity,Sea Level PressureIn,VisibilityMPH,Wind Direction,Wind SpeedMPH,Gust SpeedMPH,PrecipitationIn,Events,Conditions,WindDirDegrees,DateUTC
12:00 AM,60.8,57.2,88,30.09,-9999.0,NNW,2.3,-,N/A,,Unknown,340,2013-02-28 22:00:00
1:00 AM,60.8,57.2,88,30.09,-9999.0,North,3.5,-,N/A,,Unknown,360,2013-02-28 23:00:00
2:00 AM,62,57,79,,,NW,3.5,,,,,320,2013-03-01 00:00:00
2:00 AM,60.8,55.4,82,30.09,-9999.0,NW,2.3,-,N/A,,Unknown,320,2013-03-01 00:00:00
3:00 AM,59.0,55.4,88,30.09,-9999.0,Calm,Calm,-,N/A,,Unknown,0,2013-03-01 01:00:00
4:00 AM,59.0,55.4,88,30.09,-9999.0,East,2.3,-,N/A,,Unknown,90,2013-03-01 02:00:00
5:00 AM,58,55,88,,19,East,2.3,,,,Partly Cloudy,100,2013-03-01 03:00:00
5:00 AM,59.0,53.6,82,30.01,-9999.0,Variable,2.3,-,N/A,,Clear,0,2013-03-01 03:00:00
6:00 AM,57.2,55.4,94,30.04,-9999.0,South,4.6,-,N/A,,Clear,190,2013-03-01 04:00:00
7:00 AM,59.0,55.4,88,30.04,-9999.0,Variable,2.3,-,N/A,,Clear,0,2013-03-01 05:00:00
8:00 AM,66,59,70,,19,East,3.5,,,,Scattered Clouds,90,2013-03-01 06:00:00
8:00 AM,64.4,57.2,77,30.12,-9999.0,East,3.5,-,N/A,,Clear,90,2013-03-01 06:00:00
9:00 AM,68.0,57.2,68,30.09,6.2,North,3.5,-,N/A,,Partly Cloudy,10,2013-03-01 07:00:00
10:00 AM,73.4,53.6,50,30.09,6.2,North,8.1,-,N/A,,Scattered Clouds,350,2013-03-01 08:00:00
11:00 AM,73.4,53.6,50,30.09,6.2,North,9.2,-,N/A,,Partly Cloudy,360,2013-03-01 09:00:00
12:00 PM,77.0,53.6,44,30.06,6.2,North,8.1,-,N/A,,Partly Cloudy,360,2013-03-01 10:00:00
1:00 PM,77.0,51.8,41,30.04,6.2,NNE,8.1,-,N/A,,Partly Cloudy,30,2013-03-01 11:00:00
2:00 PM,81,47,20,,19,NNE,3.5,,,,Partly Cloudy,20,2013-03-01 12:00:00
2:00 PM,80.6,46.4,30,30.06,6.2,NNE,2.3,-,N/A,,Scattered Clouds,20,2013-03-01 12:00:00
3:00 PM,78.8,48.2,34,30.01,6.2,North,12.7,-,N/A,,Mostly Cloudy,10,2013-03-01 13:00:00
3:43 PM,78.8,51.8,39,29.98,6.2,NW,5.8,-,N/A,Thunderstorm,Thunderstorm,320,2013-03-01 13:43:00
4:00 PM,80.6,50.0,34,30.01,6.2,NW,12.7,-,N/A,,Mostly Cloudy,320,2013-03-01 14:00:00
5:00 PM,71,53,43,,19,NE,15.0,,,,Mostly Cloudy,40,2013-03-01 15:00:00
5:00 PM,69.8,51.8,53,30.09,6.2,NE,15.0,-,N/A,,Mostly Cloudy,40,2013-03-01 15:00:00
6:00 PM,66.2,50.0,56,30.06,6.2,ENE,20.7,-,N/A,,Scattered Clouds,70,2013-03-01 16:00:00
7:00 PM,62.6,51.8,68,30.09,6.2,ENE,11.5,-,N/A,,Scattered Clouds,70,2013-03-01 17:00:00
8:00 PM,61,52,63,,25,NE,9.2,,,,Scattered Clouds,40,2013-03-01 18:00:00
8:00 PM,59.0,50.0,72,30.18,6.2,NE,9.2,-,N/A,,Scattered Clouds,40,2013-03-01 18:00:00
9:00 PM,59.0,50.0,72,30.15,6.2,NNE,3.5,-,N/A,,Unknown,20,2013-03-01 19:00:00
10:00 PM,57.2,50.0,77,30.21,-9999.0,ESE,2.3,-,N/A,,Unknown,110,2013-03-01 20:00:00
11:00 PM,59,52,69,,,East,2.3,,,,,100,2013-03-01 21:00:00
11:00 PM,59.0,50.0,72,30.24,-9999.0,East,2.3,-,N/A,,Unknown,100,2013-03-01 21:00:00